Location: Napoli
(40.8639°N, 14.2562°E)
Time: 04:20:07
(UTC+02:00)

ISS - Pass Details

Date: 12 October 2017
Orbit: 401 x 408 km, 51.6° (Epoch: 23 October)

Event Time Altitude Azimuth Distance (km) Brightness Sun altitude
Rises 19:22:48 0° 310° (NW) 2,326 0.9 -11.3°
Reaches altitude 10° 19:25:00 10° 319° (NW) 1,465 -0.4 -11.7°
Maximum altitude 19:28:03 36° 28° (NNE) 668 -3.0 -12.3°
Enters shadow 19:29:36 22° 80° (E) 935 -2.6 -12.6°
